User: anonymous   Login
Location: La Comballaz
(46.3780°N, 7.0817°E)
Time: 07:36:22
(UTC+00:00)
Language:

SO-50 - Orbit

View from above orbital plane
View from above orbital plane
View from above satellite
View from above satellite

Ground track
Ground track

The orbit data is extracted from the following two-line orbital elements,

1 27607U 02058C   22339.77680796  .00000980  00000-0  15359-3 0  9999
2 27607  64.5532 137.5121 0080977 261.9345  97.2565 14.76449766 73660
Epoch (UTC): 05 December 2022 18:38:36
Eccentricity: 0.0080977
inclination: 64.5532°
perigee height: 584 km
apogee height: 697 km
right ascension of ascending node: 137.5121°
argument of perigee: 261.9345°
revolutions per day: 14.76449766
mean anomaly at epoch: 97.2565°
orbit number at epoch: 7366

The dashed part of the orbit path shows where the satellite is in the earth's shadow,  

DLR